Location: *
(46.1866°S, 178.5290°W)
Time: 18:02:17
(UTC+00:00)

BREEZE M DEB (TANK) - Pass Details

Date: 19 May 2021
Orbit: 310 x 14482 km, 49.5° (Epoch: 18 June)

Event Time Altitude Azimuth Distance (km) Brightness Sun altitude
Rises 07:25:23 0° 246° (WSW) 8,987 9.9 -30.4°
Reaches altitude 10° 07:33:57 10° 247° (WSW) 5,837 8.8 -31.9°
Enters shadow 07:45:30 63° 290° (WNW) 1,127 4.4 -33.9°
